Time,TemperatureF,DewpointF,PressureIn,WindDirection,WindDirectionDegrees,WindSpeedMPH,WindSpeedGustMPH,Humidity,HourlyPrecipIn,Conditions,Clouds,dailyrainin,SolarRadiationWatts/m^2,SoftwareType,DateUTC
2013-04-17 00:01:00,17.3,14.1,30.13,North,9,5.0,7.0,87,0.00,,,0.00,0,Wunderground v.1.15,2013-04-17 06:01:00,
2013-04-17 00:10:00,17.3,14.1,30.15,NNE,23,4.0,7.0,87,0.00,,,0.01,0,Wunderground v.1.15,2013-04-17 06:10:00,
2013-04-17 00:20:00,17.2,14.0,30.15,North,355,2.0,3.0,87,0.00,,,0.01,0,Wunderground v.1.15,2013-04-17 06:20:00,
2013-04-17 00:40:00,17.2,14.0,30.14,NNE,30,3.0,3.0,87,0.00,,,0.01,0,Wunderground v.1.15,2013-04-17 06:40:00,
2013-04-17 01:00:00,17.6,14.4,30.15,NNE,24,2.0,2.0,87,0.06,,,0.03,0,Wunderground v.1.15,2013-04-17 07:00:00,
2013-04-17 01:10:00,17.6,14.4,30.13,North,360,2.0,3.0,87,0.04,,,0.03,0,Wunderground v.1.15,2013-04-17 07:10:00,
2013-04-17 01:30:00,17.6,14.4,30.13,North,350,3.0,3.0,87,0.00,,,0.04,0,Wunderground v.1.15,2013-04-17 07:30:00,
2013-04-17 01:40:00,17.9,14.7,30.13,NNW,344,2.0,2.0,87,0.00,,,0.04,0,Wunderground v.1.15,2013-04-17 07:40:00,
2013-04-17 02:00:00,18.0,14.8,30.13,North,5,1.0,1.0,87,0.00,,,0.05,0,Wunderground v.1.15,2013-04-17 08:00:00,
2013-04-17 02:10:00,18.1,14.9,30.13,North,11,1.0,1.0,87,0.00,,,0.05,0,Wunderground v.1.15,2013-04-17 08:10:00,
2013-04-17 02:30:00,18.4,15.4,30.10,NNE,28,2.0,3.0,88,0.00,,,0.06,0,Wunderground v.1.15,2013-04-17 08:30:00,
2013-04-17 02:40:00,18.3,15.1,30.11,NE,35,2.0,2.0,87,0.04,,,0.07,0,Wunderground v.1.15,2013-04-17 08:40:00,
2013-04-17 03:00:00,18.0,14.8,30.09,NNE,23,2.0,2.0,87,0.00,,,0.07,0,Wunderground v.1.15,2013-04-17 09:00:00,
2013-04-17 03:10:00,17.9,14.7,30.09,NE,48,3.0,4.0,87,0.00,,,0.07,0,Wunderground v.1.15,2013-04-17 09:10:00,
2013-04-17 03:31:00,17.7,14.2,30.08,NE,38,4.0,6.0,86,0.00,,,0.07,0,Wunderground v.1.15,2013-04-17 09:31:00,
2013-04-17 03:40:00,17.6,14.4,30.09,NE,35,5.0,6.0,87,0.00,,,0.07,0,Wunderground v.1.15,2013-04-17 09:40:00,
2013-04-17 03:50:00,17.6,14.4,30.07,NE,41,4.0,4.0,87,0.00,,,0.07,0,Wunderground v.1.15,2013-04-17 09:50:00,
2013-04-17 04:10:00,17.5,14.3,30.08,NE,44,4.0,4.0,87,0.00,,,0.08,0,Wunderground v.1.15,2013-04-17 10:10:00,
2013-04-17 04:20:00,17.3,14.1,30.08,East,80,4.0,4.0,87,0.00,,,0.08,0,Wunderground v.1.15,2013-04-17 10:20:00,
2013-04-17 04:40:00,17.3,14.1,30.08,NE,38,3.0,3.0,87,0.00,,,0.08,0,Wunderground v.1.15,2013-04-17 10:40:00,
2013-04-17 04:50:00,17.4,14.2,30.09,NNE,32,1.0,1.0,87,0.00,,,0.09,0,Wunderground v.1.15,2013-04-17 10:50:00,
2013-04-17 05:10:00,17.3,14.1,30.07,East,82,4.0,7.0,87,0.00,,,0.09,0,Wunderground v.1.15,2013-04-17 11:10:00,
2013-04-17 05:31:00,17.2,14.0,30.07,ENE,69,3.0,5.0,87,0.00,,,0.09,0,Wunderground v.1.15,2013-04-17 11:31:00,
2013-04-17 05:40:00,17.0,13.8,30.07,ENE,70,5.0,8.0,87,0.00,,,0.09,0,Wunderground v.1.15,2013-04-17 11:40:00,
2013-04-17 05:50:00,16.8,13.9,30.07,ESE,112,8.0,9.0,88,0.00,,,0.09,0,Wunderground v.1.15,2013-04-17 11:50:00,
2013-04-17 06:10:00,16.2,13.0,30.07,NE,54,7.0,7.0,87,0.00,,,0.09,0,Wunderground v.1.15,2013-04-17 12:10:00,
2013-04-17 06:20:00,15.8,12.6,30.07,NE,36,3.0,3.0,87,0.00,,,0.09,0,Wunderground v.1.15,2013-04-17 12:20:00,
2013-04-17 06:40:00,15.5,12.1,30.07,NE,55,3.0,3.0,86,0.00,,,0.09,0,Wunderground v.1.15,2013-04-17 12:40:00,
2013-04-17 06:50:00,15.3,11.9,30.07,East,87,3.0,6.0,86,0.00,,,0.09,0,Wunderground v.1.15,2013-04-17 12:50:00,
2013-04-17 07:10:00,14.5,10.8,30.07,NE,39,0.0,0.0,85,0.00,,,0.09,7,Wunderground v.1.15,2013-04-17 13:10:00,
2013-04-17 07:20:00,14.8,11.4,30.07,NE,39,0.0,0.0,86,0.00,,,0.09,7,Wunderground v.1.15,2013-04-17 13:20:00,
2013-04-17 07:40:00,14.0,10.1,30.08,East,95,4.0,6.0,84,0.00,,,0.09,11,Wunderground v.1.15,2013-04-17 13:40:00,
2013-04-17 07:50:00,13.7,9.8,30.08,East,94,4.0,7.0,84,0.00,,,0.09,12,Wunderground v.1.15,2013-04-17 13:50:00,
2013-04-17 08:10:00,13.6,9.7,30.08,NE,47,3.0,3.0,84,0.00,,,0.09,11,Wunderground v.1.15,2013-04-17 14:10:00,
2013-04-17 08:40:00,14.5,10.3,30.08,ENE,59,1.0,1.0,83,0.00,,,0.09,23,Wunderground v.1.15,2013-04-17 14:40:00,
2013-04-17 09:00:00,14.1,9.6,30.07,ENE,59,3.0,3.0,82,0.00,,,0.09,28,Wunderground v.1.15,2013-04-17 15:00:00,
2013-04-17 09:10:00,14.4,9.6,30.07,ENE,59,3.0,3.0,81,0.00,,,0.09,32,Wunderground v.1.15,2013-04-17 15:10:00,
2013-04-17 09:30:00,13.9,8.9,30.06,ENE,78,3.0,7.0,80,0.00,,,0.10,33,Wunderground v.1.15,2013-04-17 15:30:00,
2013-04-17 09:40:00,13.5,8.8,30.07,NE,52,4.0,4.0,81,0.00,,,0.10,33,Wunderground v.1.15,2013-04-17 15:40:00,
2013-04-17 10:00:00,13.4,8.4,30.07,East,83,3.0,3.0,80,0.00,,,0.10,33,Wunderground v.1.15,2013-04-17 16:00:00,
2013-04-17 10:10:00,13.8,8.8,30.09,ENE,62,4.0,5.0,80,0.00,,,0.10,37,Wunderground v.1.15,2013-04-17 16:10:00,
2013-04-17 10:40:00,15.0,9.1,30.09,NNE,26,5.0,6.0,77,0.00,,,0.11,47,Wunderground v.1.15,2013-04-17 16:40:00,
2013-04-17 11:00:00,14.5,8.9,30.11,NNE,15,7.0,12.0,78,0.00,,,0.11,37,Wunderground v.1.15,2013-04-17 17:00:00,
2013-04-17 11:10:00,14.2,8.9,30.11,NE,44,7.0,7.0,79,0.00,,,0.11,39,Wunderground v.1.15,2013-04-17 17:10:00,
2013-04-17 11:30:00,14.5,8.6,30.12,East,80,5.0,6.0,77,0.00,,,0.11,42,Wunderground v.1.15,2013-04-17 17:30:00,
2013-04-17 11:40:00,12.7,7.7,30.13,NE,40,11.0,11.0,80,0.00,,,0.11,49,Wunderground v.1.15,2013-04-17 17:40:00,
2013-04-17 12:00:00,13.4,8.4,30.11,NE,54,6.0,6.0,80,0.00,,,0.11,69,Wunderground v.1.15,2013-04-17 18:00:00,
2013-04-17 12:10:00,13.7,8.7,30.12,NE,48,6.0,8.0,80,0.00,,,0.12,72,Wunderground v.1.15,2013-04-17 18:10:00,
2013-04-17 12:30:00,13.8,8.8,30.14,ENE,60,7.0,7.0,80,0.00,,,0.12,79,Wunderground v.1.15,2013-04-17 18:30:00,
2013-04-17 12:40:00,13.8,8.8,30.14,ENE,57,6.0,9.0,80,0.00,,,0.12,79,Wunderground v.1.15,2013-04-17 18:40:00,
2013-04-17 13:00:00,13.9,8.9,30.15,ENE,62,7.0,10.0,80,0.00,,,0.13,113,Wunderground v.1.15,2013-04-17 19:00:00,
2013-04-17 13:10:00,13.4,8.7,30.15,ENE,61,8.0,8.0,81,0.00,,,0.13,127,Wunderground v.1.15,2013-04-17 19:10:00,
2013-04-17 13:30:00,13.6,8.6,30.16,ENE,59,6.0,6.0,80,0.00,,,0.14,192,Wunderground v.1.15,2013-04-17 19:30:00,
2013-04-17 13:40:00,13.6,8.9,30.15,ENE,61,6.0,9.0,81,0.00,,,0.15,265,Wunderground v.1.15,2013-04-17 19:40:00,
2013-04-17 14:01:00,13.7,8.4,30.17,ENE,69,8.0,12.0,79,0.00,,,0.15,338,Wunderground v.1.15,2013-04-17 20:01:00,
2013-04-17 14:10:00,14.1,8.8,30.17,NE,46,7.0,12.0,79,0.00,,,0.15,352,Wunderground v.1.15,2013-04-17 20:10:00,
2013-04-17 14:30:00,13.8,8.2,30.18,NE,40,8.0,8.0,78,0.00,,,0.15,350,Wunderground v.1.15,2013-04-17 20:30:00,
2013-04-17 14:40:00,13.5,8.2,30.18,ENE,61,8.0,8.0,79,0.00,,,0.15,323,Wunderground v.1.15,2013-04-17 20:40:00,
2013-04-17 14:50:00,13.8,8.8,30.19,NE,52,7.0,9.0,80,0.00,,,0.15,332,Wunderground v.1.15,2013-04-17 20:50:00,
2013-04-17 15:10:00,14.0,8.4,30.20,NE,48,7.0,7.0,78,0.00,,,0.15,330,Wunderground v.1.15,2013-04-17 21:10:00,
2013-04-17 15:20:00,14.3,8.4,30.19,NE,41,7.0,7.0,77,0.00,,,0.15,343,Wunderground v.1.15,2013-04-17 21:20:00,
2013-04-17 15:40:00,14.4,8.5,30.20,NNE,30,7.0,7.0,77,0.00,,,0.15,308,Wunderground v.1.15,2013-04-17 21:40:00,
2013-04-17 15:50:00,14.6,8.7,30.20,NE,42,7.0,7.0,77,0.00,,,0.15,283,Wunderground v.1.15,2013-04-17 21:50:00,
2013-04-17 16:10:00,15.0,8.5,30.20,NE,55,7.0,8.0,75,0.00,,,0.15,292,Wunderground v.1.15,2013-04-17 22:10:00,
2013-04-17 16:20:00,14.6,7.8,30.21,NE,51,8.0,8.0,74,0.00,,,0.15,281,Wunderground v.1.15,2013-04-17 22:20:00,
2013-04-17 16:40:00,14.0,7.5,30.22,NE,48,7.0,8.0,75,0.00,,,0.15,236,Wunderground v.1.15,2013-04-17 22:40:00,
2013-04-17 16:50:00,14.1,7.9,30.23,NE,35,7.0,7.0,76,0.00,,,0.15,253,Wunderground v.1.15,2013-04-17 22:50:00,
2013-04-17 17:10:00,15.0,8.5,30.24,ENE,57,5.0,5.0,75,0.00,,,0.15,274,Wunderground v.1.15,2013-04-17 23:10:00,
2013-04-17 17:20:00,14.9,8.4,30.24,NE,38,5.0,5.0,75,0.00,,,0.15,234,Wunderground v.1.15,2013-04-17 23:20:00,
2013-04-17 17:40:00,13.7,7.5,30.24,ENE,63,6.0,7.0,76,0.00,,,0.15,181,Wunderground v.1.15,2013-04-17 23:40:00,
2013-04-17 17:50:00,12.6,7.0,30.25,East,86,10.0,13.0,78,0.00,,,0.15,160,Wunderground v.1.15,2013-04-17 23:50:00,
2013-04-17 18:10:00,12.1,6.8,30.25,East,81,13.0,13.0,79,0.00,,,0.15,137,Wunderground v.1.15,2013-04-18 00:10:00,
2013-04-17 18:20:00,12.1,6.8,30.26,East,92,12.0,12.0,79,0.00,,,0.15,120,Wunderground v.1.15,2013-04-18 00:20:00,
2013-04-17 18:40:00,11.6,6.6,30.26,East,94,11.0,13.0,80,0.00,,,0.15,105,Wunderground v.1.15,2013-04-18 00:40:00,
2013-04-17 18:50:00,11.8,6.5,30.26,ENE,77,8.0,8.0,79,0.00,,,0.15,74,Wunderground v.1.15,2013-04-18 00:50:00,
2013-04-17 19:10:00,11.0,6.6,30.28,SE,130,6.0,6.0,82,0.00,,,0.15,37,Wunderground v.1.15,2013-04-18 01:10:00,
2013-04-17 19:20:00,10.9,6.5,30.29,West,273,3.0,3.0,82,0.00,,,0.15,21,Wunderground v.1.15,2013-04-18 01:20:00,
2013-04-17 19:30:00,10.6,6.2,30.29,SW,230,4.0,4.0,82,0.00,,,0.15,9,Wunderground v.1.15,2013-04-18 01:30:00,
2013-04-17 19:50:00,10.7,6.6,30.31,SW,219,1.0,3.0,83,0.00,,,0.15,0,Wunderground v.1.15,2013-04-18 01:50:00,
2013-04-17 20:10:00,10.7,6.6,30.32,SSW,211,1.0,2.0,83,0.00,,,0.15,0,Wunderground v.1.15,2013-04-18 02:10:00,
2013-04-17 20:20:00,10.8,6.7,30.33,SSW,212,1.0,2.0,83,0.00,,,0.15,0,Wunderground v.1.15,2013-04-18 02:20:00,
2013-04-17 20:40:00,11.3,5.8,30.33,NNE,14,3.0,3.0,78,0.00,,,0.15,0,Wunderground v.1.15,2013-04-18 02:40:00,
2013-04-17 20:50:00,11.3,5.5,30.33,NNE,22,3.0,3.0,77,0.00,,,0.15,0,Wunderground v.1.15,2013-04-18 02:50:00,
2013-04-17 21:10:00,11.2,4.5,30.35,NNW,342,4.0,4.0,74,0.00,,,0.15,0,Wunderground v.1.15,2013-04-18 03:10:00,
2013-04-17 21:20:00,11.1,4.4,30.35,ENE,68,3.0,4.0,74,0.00,,,0.15,0,Wunderground v.1.15,2013-04-18 03:20:00,
2013-04-17 21:40:00,10.5,3.8,30.36,West,279,4.0,4.0,74,0.00,,,0.15,0,Wunderground v.1.15,2013-04-18 03:40:00,
2013-04-17 21:50:00,10.4,4.0,30.36,NNW,333,4.0,4.0,75,0.00,,,0.15,0,Wunderground v.1.15,2013-04-18 03:50:00,
2013-04-17 22:10:00,9.7,4.2,30.36,NNW,334,1.0,1.0,78,0.00,,,0.15,0,Wunderground v.1.15,2013-04-18 04:10:00,
2013-04-17 22:20:00,9.4,3.6,30.36,NNW,334,0.0,0.0,77,0.00,,,0.15,0,Wunderground v.1.15,2013-04-18 04:20:00,
2013-04-17 22:40:00,7.6,1.9,30.36,NNW,334,0.0,0.0,77,0.00,,,0.15,0,Wunderground v.1.15,2013-04-18 04:40:00,
2013-04-17 22:50:00,6.8,1.4,30.36,NNW,334,0.0,0.0,78,0.00,,,0.15,0,Wunderground v.1.15,2013-04-18 04:50:00,
2013-04-17 23:10:00,5.8,0.7,30.37,NNW,334,0.0,0.0,79,0.00,,,0.15,0,Wunderground v.1.15,2013-04-18 05:10:00,
2013-04-17 23:20:00,5.7,0.9,30.38,NNW,334,0.0,0.0,80,0.00,,,0.15,0,Wunderground v.1.15,2013-04-18 05:20:00,
2013-04-17 23:40:00,6.0,1.4,30.37,WNW,299,3.0,3.0,81,0.00,,,0.15,0,Wunderground v.1.15,2013-04-18 05:40:00,
2013-04-17 23:50:00,5.9,1.3,30.37,WNW,299,2.0,2.0,81,0.00,,,0.15,0,Wunderground v.1.15,2013-04-18 05:50:00,